Location: Newark
(15.4608°S, 41.1635°W)
Time: 00:42:42
(UTC+00:00)

Explorer 11/Cluster Stage 4 - All Passes

Search period start: 31 July 2021 00:00
Search period end: 10 August 2021 00:00
Orbit: 467 x 1257 km, 28.8° (Epoch: 30 July)

Date Brightness Start Highest point End Pass type
(mag) Time Alt. Az. Time Alt. Az. Time Alt. Az.
31 Jul - 00:43:29 10° SW 00:45:41 15° SSW 00:47:55 10° SSE night (unlit)
31 Jul - 02:33:10 10° SSW 02:34:55 12° S 02:36:48 10° SSE night (unlit)
31 Jul - 04:20:15 10° SW 04:24:02 26° SSE 04:28:30 10° ESE night (unlit)
31 Jul - 06:07:36 10° WSW 06:12:43 87° SSE 06:19:13 10° ENE visible
31 Jul - 07:56:31 10° W 08:01:39 28° NNW 08:07:41 10° NNE visible
31 Jul - 20:53:45 10° NW 20:57:57 33° NNE 21:01:33 10° E visible
31 Jul - 22:42:21 10° W 22:46:10 42° SSW 22:49:39 10° SE visible
01 Aug - 00:32:57 10° SW 00:34:49 13° S 00:36:43 10° SSE night (unlit)
01 Aug - 02:22:26 10° SSW 02:24:04 12° S 02:25:48 10° SSE night (unlit)
01 Aug - 04:09:18 10° SW 04:13:04 28° SSE 04:17:29 10° E night (unlit)
01 Aug - 05:56:43 10° WSW 06:01:38 80° NNW 06:07:52 10° ENE visible
01 Aug - 07:46:00 10° WNW 07:50:33 23° NNW 07:55:49 10° NNE visible
01 Aug - 20:42:18 10° NW 20:46:58 43° NNE 20:50:51 10° E daylight
01 Aug - 22:31:25 10° W 22:35:14 35° SSW 22:38:40 10° SE visible
02 Aug - 00:22:24 10° SW 00:23:58 12° S 00:25:32 10° SSE night (unlit)
02 Aug - 02:11:35 10° SSW 02:13:13 12° S 02:14:54 10° SE night (unlit)
02 Aug - 03:58:21 10° SW 04:02:05 31° SSE 04:06:28 10° E night (unlit)
02 Aug - 05:45:53 10° WSW 05:50:34 65° NNW 05:56:29 10° NE visible
02 Aug - 07:35:39 10° WNW 07:39:28 18° NNW 07:43:48 10° NNE visible
02 Aug - 18:44:22 10° N 18:47:15 14° NNE 18:49:52 10° ENE daylight
02 Aug - 20:30:54 10° NW 20:35:59 57° NNE 20:40:06 10° ESE daylight
02 Aug - 22:20:30 10° W 22:24:18 30° SSW 22:27:40 10° SE visible
03 Aug - 00:11:49 10° SSW 00:13:07 11° S 00:14:24 10° SSE night (unlit)
03 Aug - 02:00:38 10° SSW 02:02:21 13° S 02:04:07 10° SE night (unlit)
03 Aug - 03:47:24 10° SW 03:51:07 36° SSE 03:55:28 10° E night (unlit)
03 Aug - 05:35:05 10° WSW 05:39:31 51° NNW 05:45:03 10° NE visible
03 Aug - 07:25:37 10° WNW 07:28:25 14° NNW 07:31:29 10° N visible
03 Aug - 18:32:08 10° NNW 18:36:13 18° NNE 18:39:48 10° ENE daylight
03 Aug - 20:19:33 10° WNW 20:24:58 72° NNE 20:29:18 10° ESE daylight
03 Aug - 22:09:35 10° W 22:13:21 26° SSW 22:16:41 10° SE visible
04 Aug - 00:01:09 10° SSW 00:02:16 11° S 00:03:22 10° SSE night (unlit)
04 Aug - 01:49:37 10° SSW 01:51:30 13° SSE 01:53:25 10° SE night (unlit)
04 Aug - 03:36:27 10° SW 03:40:08 41° SSE 03:44:28 10° E night (unlit)
04 Aug - 05:24:22 10° W 05:28:30 40° NNW 05:33:33 10° NE visible
04 Aug - 07:17:00 10° NNW 07:17:24 10° NNW 07:17:49 10° NNW visible
04 Aug - 18:20:10 10° NNW 18:25:11 23° NNE 18:29:27 10° E daylight
04 Aug - 20:08:14 10° WNW 20:13:56 88° NNE 20:18:27 10° ESE daylight
04 Aug - 21:58:40 10° WSW 22:02:25 24° SSW 22:05:42 10° SE visible
04 Aug - 23:50:21 10° SSW 23:51:25 11° S 23:52:28 10° SSE night (unlit)
05 Aug - 01:38:32 10° SSW 01:40:37 14° SSE 01:42:45 10° SE night (unlit)
05 Aug - 03:25:30 10° SW 03:29:11 50° SSE 03:33:26 10° E night (unlit)
05 Aug - 05:13:42 10° W 05:17:30 31° NNW 05:22:01 10° NE night (unlit)
05 Aug - 18:08:21 10° NNW 18:14:06 30° NNE 18:18:55 10° E daylight
05 Aug - 19:56:56 10° WNW 20:02:53 77° SSW 20:07:34 10° ESE daylight
05 Aug - 21:47:43 10° WSW 21:51:29 22° SSW 21:54:45 10° SE visible
05 Aug - 23:39:23 10° SSW 23:40:34 11° S 23:41:44 10° SSE night (unlit)
06 Aug - 01:27:25 10° SSW 01:29:44 16° SSE 01:32:07 10° SE night (unlit)
06 Aug - 03:14:33 10° WSW 03:18:13 63° SSE 03:22:24 10° ENE night (unlit)
06 Aug - 05:03:08 10° W 05:06:31 24° NNW 05:10:24 10° NNE night (unlit)
06 Aug - 16:12:10 10° NNE 16:13:39 11° NNE 16:15:06 10° NE daylight
06 Aug - 17:56:38 10° NW 18:03:00 37° NNE 18:08:16 10° E daylight
06 Aug - 19:45:41 10° WNW 19:51:48 65° SSW 19:56:40 10° ESE daylight
06 Aug - 21:36:46 10° WSW 21:40:32 21° SSW 21:43:49 10° SSE visible
06 Aug - 23:28:15 10° SSW 23:29:43 12° S 23:31:09 10° SSE visible
07 Aug - 01:16:15 10° SSW 01:18:52 18° SSE 01:21:29 10° ESE night (unlit)
07 Aug - 03:03:36 10° WSW 03:07:16 80° SSE 03:11:20 10° ENE night (unlit)
07 Aug - 04:52:45 10° WNW 04:55:32 18° NNW 04:58:39 10° NNE night (unlit)
07 Aug - 15:58:55 10° N 16:02:33 14° NNE 16:05:57 10° ENE daylight
07 Aug - 17:44:59 10° NW 17:51:51 45° NNE 17:57:30 10° E daylight
07 Aug - 19:34:25 10° WNW 19:40:43 57° SSW 19:45:44 10° SE daylight
07 Aug - 21:25:47 10° WSW 21:29:36 20° SSW 21:32:54 10° SSE visible
07 Aug - 23:17:03 10° SSW 23:18:53 12° S 23:20:37 10° SSE visible
08 Aug - 01:05:05 10° SW 01:08:00 21° SSE 01:10:50 10° ESE night (unlit)
08 Aug - 02:52:42 10° WSW 02:56:19 78° NNW 03:00:14 10° ENE night (unlit)
08 Aug - 04:42:39 10° WNW 04:44:34 13° NNW 04:46:37 10° N night (unlit)
08 Aug - 15:46:32 10° N 15:51:23 17° NNE 15:55:54 10° ENE daylight
08 Aug - 17:33:24 10° NW 17:40:41 54° NNE 17:46:40 10° ESE daylight
08 Aug - 19:23:12 10° W 19:29:37 50° SSW 19:34:46 10° SE daylight
08 Aug - 21:14:46 10° WSW 21:18:39 20° SSW 21:22:02 10° SSE visible
08 Aug - 23:05:48 10° SSW 23:08:01 14° S 23:10:06 10° SSE visible
09 Aug - 00:53:54 10° SW 00:57:06 25° SSE 01:00:10 10° ESE night (unlit)
09 Aug - 02:41:48 10° WSW 02:45:22 58° NNW 02:49:07 10° NE night (unlit)
09 Aug - 15:34:26 10° NNW 15:40:12 21° NNE 15:45:30 10° ENE daylight
09 Aug - 17:21:52 10° NW 17:29:29 64° NNE 17:35:47 10° ESE daylight
09 Aug - 19:12:00 10° W 19:18:31 45° SSW 19:23:48 10° SE daylight
09 Aug - 21:03:43 10° WSW 21:07:43 19° SSW 21:11:11 10° SE visible
09 Aug - 22:54:31 10° SSW 22:57:10 15° S 22:59:36 10° SE visible
